FENGYUN 1C DEB

Satellite information

Favourite Embed

Satellite Type and Status

DEBRISIN ORBIT

Key statistics

Satellite FENGYUN 1C DEB at a glance.

Uptime

9616

Days in orbit

Revolutions

≈ 14.6

Per day

Orbit

SSO

Sun Synchronous Orbit

Inclination

100.2

Latest

Satellite identification and parameters

Extended collection of information and parameters for FENGYUN 1C DEB.

Object identification

Identified? True

Debris? True

Object name: FENGYUN 1C DEB

International designator: 1999-025ELY

Object number (NORAD): 37707

Object ID (CCSDS): 37707

Country: PEOPLES REPUBLIC OF CHINA (PRC)

Current information (Y/N): Y

RCS size: SMALL

Orbital parameters

Period: 98.924 minutes

Inclination: 100.2145 deg

SMA: 7085.362 km

Apoapsis: 809.619 km

Periapsis: 604.836 km

RAAN: 227.7619 deg

Eccentricy: 0.01445114

Argument of periapsis: 318.5495 deg

Mean anomaly: 60.9074 deg

Mean motion: 14.55659085 rev/day

Mean motion (dot): 0.00008105 rev/day2

B* drag term: 0.0016246419 1/REarth

Two-line elements (TLE)

Creation date: Sept. 3, 2025, 10:15 a.m.

Reference frame: TEME

Reference center: EARTH

Epoch: Sept. 3, 2025, 4:59 a.m. UTC

TLE line 0: 0 FENGYUN 1C DEB

TLE line 1: 1 37707U 99025ELY 25246.20794757 .00008105 00000-0 16246-2 0 9994

TLE line 2: 2 37707 100.2145 227.7619 0144511 318.5495 60.9074 14.55659085841034

Live tracking on map

Real-time ground track for satellite FENGYUN 1C DEB.

In-orbit conjunctions

A list of the most updated potential collisions computed for object FENGYUN 1C DEB.

Target Orbit TCA Probability of collision Miss distance Type
THORAD AGENA D DEB LEO 2024-11-12 23:59:32 0.0001104682 764.0 (m) DEBRIS
FENGYUN 1C DEB SSO 2024-06-15 11:31:43 0.0002891886 108.0 (m) DEBRIS

Associated space launch

Chinese polar orbiting meteorological satellite

FENGYUN 1C DEB was lifted into orbit during the mission ‘Long March 4B | Feng Yun 1C’, on board a Long March 4B space rocket.

The launch took place on May 10, 1999, 1:33 a.m. from Launch Complex 7.

For more information about the launch, click the button.

Launch to space Long March 4B | Feng Yun 1C
Long March 4B | Feng Yun 1C

Agency: N/A

Status: Launch Successful

Launch date: May 10, 1999, 1:33 a.m. UTC

Rocket: Long March 4B

Launch pad: Launch Complex 7

Location: Taiyuan Satellite Launch Center, People's Republic of China

...

Latest news about this satellite

There are no fresh news available about this satellite. Check back as we update our databases every day.


Newsletter sign-up

Weekly statistics, charts and insights to help you stay on top of the space industry.